Regional Weather Roundup
Issued by NWS

Home | Current Version | Previous Version | Text Only | Print | Product List | Glossary On
Versions: 1 2 3 4 5 6 7 8 9 10 11 12 13 14 15 16 17 18 19 20 21 22 23 24 25 26 27
000
ASUS43 KDMX 220607
RWRIA

WEATHER ROUNDUP FOR IOWA
NATIONAL WEATHER SERVICE DES MOINES IA
100 AM CDT TUE APR 22 2014

NOTE: "FAIR" INDICATES FEW OR NO CLOUDS BELOW 12,000 FEET WITH NO
SIGNIFICANT WEATHER AND/OR OBSTRUCTIONS TO VISIBILITY.

* - THESE STATIONS ARE NOT NWS STATIONS...THUS NOT UNDER NWS
QUALITY CONTROL.  THEY ALSO DO NOT REPORT WEATHER SUCH
AS PRECIPITATION OR FOG.

IAZ001>003-012>014-020>022-031>034-043>046-220700-
   NORTHWEST IOWA

CITY           SKY/WX    TMP DP  RH WIND       PRES   REMARKS
CARROLL *      CLEAR     46  32  57 N13       30.14R
CHEROKEE *       N/A     45  32  61 N8        30.15S
DENISON *      CLEAR     45  34  65 NE8       30.14S
LE MARS *      CLEAR     39  32  75 N6        30.15F WCI  35
ORANGE CITY *  CLEAR     48  28  46 NE5       30.15S
SHELDON *      CLEAR     37  28  70 NE9       30.14S WCI  31
SIOUX CITY       N/A     50  31  48 NE6       30.15F
6HR MIN TEMP:  50; 6HR MAX TEMP:  69;

SPENCER          N/A     43  31  62 N9        30.15R
6HR MIN TEMP:  39; 6HR MAX TEMP:  61;

STORM LAKE *   CLEAR     43  32  65 N9        30.15S
$$

IAZ055>058-069>071-079>083-090>094-220700-
   SOUTHWEST IOWA

CITY           SKY/WX    TMP DP  RH WIND       PRES   REMARKS
ATLANTIC *     CLEAR     45  36  70 N7        30.13R
AUDUBON *      CLEAR     45  32  61 NW6       30.15R
CLARINDA *     CLEAR     52  37  58 N13       30.13R
COUNCIL BLFS * CLEAR     48  36  61 N6        30.14R
CRESTON *      CLEAR     48  34  57 N12       30.11R
HARLAN  *      CLEAR     48  36  61 N9        30.18R
LAMONI           N/A     53  35  50 N13       30.08R
6HR MIN TEMP:  52; 6HR MAX TEMP:  69;

RED OAK *      CLEAR     45  39  81 N6        30.13S
SHENANDOAH *   CLEAR     50  39  66 N8        30.14R
$$

IAZ047>049-059>061-072>074-084-220700-
   CENTRAL IOWA

CITY           SKY/WX    TMP DP  RH WIND       PRES   REMARKS
AMES             N/A     49  34  56 N15       30.09R
6HR MIN TEMP:  49; 6HR MAX TEMP:  67;

ANKENY *       CLEAR     50  34  53 N14       30.09R
CHARITON *     CLEAR     50  36  57 N13       30.07R
DES MOINES       N/A     54  33  45 N17G23    30.08R
6HR MIN TEMP:  54; 6HR MAX TEMP:  71;

GRINNELL*        N/A     46  37  71 NW13      30.05R
KNOXVILLE *    CLEAR     50  36  57 N12       30.06R
MARSHALLTOWN     N/A     44  37  76 NW12      30.05R
6HR MIN TEMP:  44; 6HR MAX TEMP:  65;

NEWTON *       CLEAR     48  36  61 N16       30.06S
PELLA *          N/A     48  37  66 NW10      30.06S
PERRY *          N/A     48  32  53 N16       30.11R
$$

IAZ004>006-015-016-023>025-035-036-220700-
   NORTH CENTRAL IOWA

CITY           SKY/WX    TMP DP  RH WIND       PRES   REMARKS
ALGONA *       CLEAR     43  32  65 NW9       30.12S
CLARION *      CLEAR     43  36  75 NW10      30.10R
ESTHERVILLE      N/A     42  30  62 NW13      30.12S
6HR MIN TEMP:  42; 6HR MAX TEMP:  58;

FORT DODGE *     N/A     46  32  57 N6        30.13R
MASON CITY       N/A     43  34  70 NW14      30.10R
6HR MIN TEMP:  43; 6HR MAX TEMP:  59;

FOREST CITY *  CLEAR     45  32  61 NW12      30.09R
IOWA FALLS *     N/A     46  34  61 NW20G26   30.08R
$$

IAZ007>011-017>019-026>030-037>042-050>054-066-220700-
   NORTHEAST IOWA

CITY           SKY/WX    TMP DP  RH WIND       PRES   REMARKS
CEDAR RAPIDS     N/A     49  39  68 NW12      29.99R
6HR MIN TEMP:  48; 6HR MAX TEMP:  64;

CHARLES CITY * CLEAR     46  34  61 N22G30    30.04R
CLINTON *        N/A     50  39  66 NW10      29.95R
DECORAH *      CLEAR     48  32  53 N17       30.00R
DUBUQUE          N/A     51  31  46 N15       29.94R
6HR MIN TEMP:  51; 6HR MAX TEMP:  66;

MONTICELLO *   CLEAR     50  37  62 NW12      29.97R
OELWEIN *      CLEAR    N/A N/A N/A NW13      30.02R
WATERLOO         N/A     47  36  65 NW13      30.03R
6HR MIN TEMP:  47; 6HR MAX TEMP:  64;

$$

IAZ064-065-067-068-078-220700-
   EAST CENTRAL IOWA

CITY           SKY/WX    TMP DP  RH WIND       PRES   REMARKS
DAVENPORT        N/A     50  42  74 NW10      29.94R
6HR MIN TEMP:  50; 6HR MAX TEMP:  65;

IOWA CITY        N/A     52  40  63 NW10      30.00R
6HR MIN TEMP:  52; 6HR MAX TEMP:  66;

MT. PLEASANT *   N/A     54  39  58 NW12      29.98S
MUSCATINE *    CLEAR     54  41  62 NW17G24   29.97R
QUAD CITIES      N/A     53  42  66 NW10      29.93R
6HR MIN TEMP:  53; 6HR MAX TEMP:  65;

$$

IAZ062-063-075>077-085>089-095>099-220700-
   SOUTHEAST IOWA

CITY           SKY/WX    TMP DP  RH WIND       PRES   REMARKS
BURLINGTON       N/A     54  42  64 NW13G22   29.95R
6HR MIN TEMP:  54; 6HR MAX TEMP:  66;

FAIRFIELD *    CLEAR     50  39  66 NW14      30.01R
FORT MADISON * CLEAR     54  45  71 NW14G20   29.97S
KEOKUK *       CLEAR     54  45  71 NW10G16   29.97R
OSKALOOSA *      N/A     48  39  71 NW10      30.04R
CENTERVILLE *  CLEAR     50  39  66 NW14      30.06R
OTTUMWA          N/A     49  38  65 NW17      30.02R
6HR MIN TEMP:  49; 6HR MAX TEMP:  65;

WASHINGTON *   CLEAR     50  41  71 NW16      30.00R
$$

ABBREVIATIONS USED IN REMARKS
   TC - TEMPERATURES IN CELSIUS
  WCI - WIND CHILL INDEX
   HX - HEAT INDEX
  VSB - VISIBILITY
$$




USA.gov is the U.S. government's official web portal to all federal, state and local government web resources and services.